Regional Weather Roundup
Issued by NWS Sterling, VA

Home | Current Version | Previous Version | Graphics & Text | Print | Product List | Glossary On
Versions: 1 2 3 4 5 6 7 8 9 10 11 12 13 14 15 16 17 18 19 20 21 22 23 24 25 26 27 28 29 30 31 32 33 34 35 36 37 38 39 40 41 42 43 44 45 46 47 48 49 50
000
ASUS41 KLWX 060910
RWRLWX

REGIONAL WEATHER ROUNDUP
NATIONAL WEATHER SERVICE BALTIMORE MD/WASHINGTON DC
400 AM EST TUE DEC 06 2016

Note: "FAIR" indicates few or no clouds below 12,000 feet
with no significant weather and/or obstructions to visibility.
 TC=TEMPERATURE CELSIUS

 * =Non NWS site. Station does not report precipitation (e.g. rain,
    snow, etc.), thunder, or fog.

DCZ001-MDZ009-015-VAZ040>042-051-053>054-061000-
WASHINGTON METRO

CITY           SKY/WX    TMP DP  RH WIND       PRES   REMARKS
WASHINGTON NAT CLOUDY    44  33  65 NE9       30.11F
DULLES         CLOUDY    40  30  67 N6        30.10F
ANDREWS AFB    CLOUDY    41  31  69 NE9       30.09F
FT BELVOIR     CLOUDY    43  30  59 CALM      30.10F
QUANTICO       CLOUDY    45  32  60 E9        30.13F
LEESBURG*      PTCLDY    39  36  87 MISG      30.11F
MANASSAS*      CLOUDY    41  34  75 CALM      30.11F
GAITHERSBURG*  CLOUDY    36  28  75 NE3       30.14F

$$

MDZ006>007-011-014-061000-
BALTIMORE METRO

CITY           SKY/WX    TMP DP  RH WIND       PRES   REMARKS
BWI AIRPORT    CLOUDY    41  31  67 NE5       30.12S
MD SCIENCE CTR   N/A     44  29  55 MISG      30.13S
ANNAPOLIS      MOCLDY    45  33  63 NE6       30.11F

$$

MDZ012-015-019>023-061000-
MARYLAND EASTERN SHORE

CITY           SKY/WX    TMP DP  RH WIND       PRES   REMARKS
OCEAN CITY     PTCLDY    46  34  62 NE13      30.12S
SALISBURY      CLOUDY    41  35  79 N6        30.11F
EASTON*        CLOUDY    41  32  70 E7        30.13F

$$

MDZ017>025-061000-
SOUTHERN MARYLAND

CITY           SKY/WX    TMP DP  RH WIND       PRES   REMARKS
PATUXENT RIVER CLOUDY    44  33  65 NE8       30.11F
ST INIGOES     CLOUDY    44  34  67 NE5       30.11S
LEONARDTOWN*   NOT AVBL

$$

MDZ003>005-061000-
NORTH CENTRAL MARYLAND

CITY           SKY/WX    TMP DP  RH WIND       PRES   REMARKS
FREDERICK*     NOT AVBL
HAGERSTOWN APT CLOUDY    35  28  75 CALM      30.10F
WESTMINSTER*   NOT AVBL

$$

MDZ501>502-061000-
WESTERN MARYLAND

CITY           SKY/WX    TMP DP  RH WIND       PRES   REMARKS
OAKLAND*       NOT AVBL
CUMBERLAND*    NOT AVBL

$$

VAZ025>031-061000-
SHENANDOAH VALLEY

CITY           SKY/WX    TMP DP  RH WIND       PRES   REMARKS
WINCHESTER*    CLOUDY    36  30  80 CALM      30.09F
FRONT ROYAL*   FAIR      37  32  81 CALM      30.08F
LURAY*         FAIR      39  34  81 CALM      30.08R
NEW MARKET*    FAIR      38  29  69 N5        30.08R
STAUNTON*      CLOUDY    39  32  76 NE3       30.08R
WAYNESBORO*    CLOUDY    41  32  70 SE7       30.05S

$$

WVZ021-048>050-054>055-061000-
EASTERN WEST VIRGINIA PANHANDLE

CITY           SKY/WX    TMP DP  RH WIND       PRES   REMARKS
MARTINSBURG    CLOUDY    34  30  85 CALM      30.10F
PETERSBURG*    MOCLDY    38  33  81 CALM      30.07F

$$

VAZ036>039-050-061000-
CENTRAL FOOTHILLS

CITY           SKY/WX    TMP DP  RH WIND       PRES   REMARKS
CHARLOTTESVILL   N/A     43  34  70 NE6       30.08F
CULPEPER*      CLOUDY    40  35  82 CALM      30.12F
ORANGE*          N/A     41  36  81 CALM      30.11F
GORDONSVILLE*  CLOUDY    41  35  77 NE6       30.08F
WARRENTON*     FAIR      41  31  67 CALM      30.10F

$$

VAZ055>057-061000-
NORTH AND CENTRAL PIEDMONT

CITY           SKY/WX    TMP DP  RH WIND       PRES   REMARKS
FREDERICKSBRG* CLOUDY    44  36  73 CALM      30.11F
STAFFORD*      PTCLDY    40  36  85 CALM      30.15F

$$

NCZ024-NYZ072-PAZ021-071-VAZ022-071-061000-
OTHER REGIONAL OBSERVATIONS

CITY           SKY/WX    TMP DP  RH WIND       PRES   REMARKS
NEW YORK CITY  CLEAR     40  27  59 NW7       30.15R
PHILADELPHIA   PTCLDY    38  29  70 N6        30.14F
PITTSBURGH     CLOUDY    36  28  73 E13       29.95F WCI  27
ROANOKE        LGT RAIN  46  43  89 E7        30.03F
RICHMOND       CLOUDY    43  41  93 NE8       30.08F
RALEIGH        CLOUDY    47  43  86 E13       29.98F

$$

ANZ530>537-061000-
MARINE OBSERVATIONS

STATION/POSITION TIME  TEMP    WIND        PRES
                       AIR SEA DIR/SP/G
                 (UTC) (F)     (DEG/KT/KT) (MB)
THOMAS PT LIGHT  0900   45 49   40/ 15/ 16   N/A
BALT KEY BRIDGE  0848   43      10/  4/  5 1020.2F
COVE POINT       0848   44      50/ 15/ 18 1019.9F
LEWISETTA        0848   46 49   70/  9/ 13 1019.6S
SOLOMONS ISLAND  0836   45 51   40/  5/  9   N/A
PINEY POINT      0836           90/  3/  4   N/A

$$




USA.gov is the U.S. government's official web portal to all federal, state and local government web resources and services.